Date String (YYYY-MM-DD hh:mm:ss) UTC,Instrument flags,Ambient pressure (hPa),Sample flow (lpm),Bypass flow (lpm),Sample temperature (°C),Ambient temperature (°C),ASC tube jacket temperature (°C),LED temperature (°C),Box temperature (°C),Sample RH (%),Span deviation,Mass concentration (μg/m³),Mass concentration (μg/m³),Mass concentration (μg/m³)
DateTimeUTC,F1_M11,P_M11,Q1_M11,Q2_M11,T1_M11,T2_M11,T3_M11,T4_M11,T5_M11,U1_M11,ZSPAN_M11,X0_M11,X2_M11,X1_M11
2022-05-29 00:00:00,,0812.9,5.01,0.00,29.2,28.3,00.0,38.0,31.2,10.1,0000.0,0007.91,0002.24,0000.95
2022-05-29 00:01:00,,0812.9,5.01,0.00,29.3,28.3,00.0,38.1,31.2,09.6,0000.0,0007.91,0002.15,0000.94
2022-05-29 00:02:00,,0812.9,5.00,0.00,29.3,28.4,00.0,38.1,31.3,09.4,0000.0,0007.88,0002.12,0000.93
2022-05-29 00:03:00,,0812.9,5.00,0.00,29.3,28.5,00.0,38.1,31.3,09.6,0000.0,0007.86,0002.13,0000.92
2022-05-29 00:04:00,,0813.0,5.00,0.00,29.4,28.5,00.0,38.1,31.3,09.7,0000.0,0007.08,0002.17,0000.91
2022-05-29 00:05:00,,0813.1,5.00,0.00,29.4,28.6,00.0,38.2,31.4,10.0,0000.0,0007.61,0002.18,0000.91
2022-05-29 00:06:00,,0813.1,4.99,0.00,29.4,28.7,00.0,38.2,31.4,10.4,0000.0,0007.82,0002.25,0000.92
2022-05-29 00:07:00,,0813.1,5.01,0.00,29.5,28.6,00.0,38.2,31.4,09.5,0000.0,0007.88,0002.27,0000.91
2022-05-29 00:08:00,,0813.1,5.00,0.00,29.4,27.7,00.0,38.2,31.2,09.4,0000.0,0007.92,0002.27,0000.89
2022-05-29 00:09:00,,0813.0,4.99,0.00,29.3,26.9,00.0,38.1,31.0,09.7,0000.0,0008.11,0002.22,0000.87
2022-05-29 00:10:00,,0813.1,5.01,0.00,29.3,26.8,00.0,38.1,30.9,09.4,0000.0,0008.05,0002.19,0000.85
2022-05-29 00:11:00,,0813.0,4.99,0.00,29.2,26.9,00.0,38.1,30.9,08.7,0000.0,0007.66,0002.18,0000.84
2022-05-29 00:12:00,,0813.0,5.01,0.00,29.2,27.0,00.0,38.0,30.9,09.1,0000.0,0007.60,0002.23,0000.85
2022-05-29 00:13:00,,0813.1,5.00,0.00,29.1,27.2,00.0,38.0,30.9,09.1,0000.0,0007.75,0002.29,0000.85
2022-05-29 00:14:00,,0813.1,4.99,0.00,29.1,27.4,00.0,38.0,31.0,09.8,0000.0,0007.83,0002.28,0000.84
2022-05-29 00:15:00,,0813.1,5.00,0.00,29.1,27.6,00.0,38.0,31.0,09.3,0000.0,0007.84,0002.26,0000.83
2022-05-29 00:16:00,,0813.0,4.99,0.00,29.2,27.7,00.0,38.0,31.0,09.1,0000.0,0007.09,0002.27,0000.82
2022-05-29 00:17:00,,0813.0,4.99,0.00,29.2,27.9,00.0,38.1,31.1,08.7,0000.0,0006.43,0002.16,0000.81
2022-05-29 00:18:00,,0813.0,5.00,0.00,29.2,28.0,00.0,38.1,31.1,08.6,0000.0,0006.98,0002.08,0000.80
2022-05-29 00:19:00,,0812.9,5.00,0.00,29.2,28.1,00.0,38.1,31.2,08.4,0000.0,0007.61,0002.05,0000.79
2022-05-29 00:20:00,,0813.0,5.02,0.00,29.3,28.2,00.0,38.1,31.2,08.9,0000.0,0007.12,0002.02,0000.79
2022-05-29 00:21:00,,0813.0,4.98,0.00,29.3,28.3,00.0,38.1,31.3,08.9,0000.0,0007.04,0002.01,0000.80
2022-05-29 00:22:00,,0813.1,5.00,0.00,29.3,28.4,00.0,38.1,31.3,08.5,0000.0,0006.86,0001.99,0000.81
2022-05-29 00:23:00,,0813.1,5.00,0.00,29.4,28.5,00.0,38.2,31.3,08.7,0000.0,0006.81,0001.92,0000.80
2022-05-29 00:24:00,,0813.1,5.00,0.00,29.4,28.6,00.0,38.2,31.4,08.4,0000.0,0007.24,0001.89,0000.81
2022-05-29 00:25:00,,0813.2,5.01,0.00,29.4,28.6,00.0,38.2,31.4,08.5,0000.0,0007.74,0001.88,0000.81
2022-05-29 00:26:00,,0813.3,5.01,0.00,29.5,28.6,00.0,38.2,31.4,08.2,0000.0,0008.19,0001.84,0000.82
2022-05-29 00:27:00,,0813.1,4.99,0.00,29.5,28.0,00.0,38.2,31.3,08.8,0000.0,0008.13,0001.79,0000.82
2022-05-29 00:28:00,,0813.3,5.00,0.00,29.4,27.5,00.0,38.1,31.1,08.5,0000.0,0008.20,0001.85,0000.81
2022-05-29 00:29:00,,0813.2,5.01,0.00,29.4,27.5,00.0,38.1,31.1,08.4,0000.0,0007.61,0001.86,0000.81
2022-05-29 00:30:00,,0813.2,5.00,0.00,29.3,27.5,00.0,38.2,31.1,08.7,0000.0,0006.94,0001.85,0000.80
2022-05-29 00:31:00,,0813.3,5.00,0.00,29.3,27.6,00.0,38.2,31.1,08.6,0000.0,0007.32,0001.84,0000.80
2022-05-29 00:32:00,,0813.3,4.99,0.00,29.3,27.8,00.0,38.2,31.2,09.1,0000.0,0007.54,0001.81,0000.79
2022-05-29 00:33:00,,0813.3,5.01,0.00,29.3,27.9,00.0,38.2,31.2,09.8,0000.0,0007.79,0001.81,0000.78
2022-05-29 00:34:00,,0813.3,5.01,0.00,29.4,28.1,00.0,38.2,31.2,09.6,0000.0,0008.32,0001.91,0000.78
2022-05-29 00:35:00,,0813.2,4.99,0.00,29.4,28.2,00.0,38.2,31.3,09.4,0000.0,0007.95,0001.88,0000.77
2022-05-29 00:36:00,,0813.2,4.99,0.00,29.4,28.3,00.0,38.2,31.3,09.6,0000.0,0007.62,0001.95,0000.77
2022-05-29 00:37:00,,0813.2,5.01,0.00,29.4,28.4,00.0,38.2,31.4,09.3,0000.0,0007.14,0002.03,0000.77
2022-05-29 00:38:00,,0813.2,5.01,0.00,29.5,28.5,00.0,38.2,31.4,09.3,0000.0,0007.37,0002.03,0000.77
2022-05-29 00:39:00,,0813.1,5.01,0.00,29.5,28.6,00.0,38.3,31.4,09.2,0000.0,0007.45,0002.03,0000.77
2022-05-29 00:40:00,,0813.2,4.99,0.00,29.5,28.7,00.0,38.3,31.5,09.0,0000.0,0007.44,0002.04,0000.80
2022-05-29 00:41:00,,0813.2,4.99,0.00,29.5,28.3,00.0,38.3,31.4,09.0,0000.0,0007.48,0002.11,0000.82
2022-05-29 00:42:00,,0813.3,5.02,0.00,29.5,27.7,00.0,38.2,31.2,09.1,0000.0,0007.27,0002.11,0000.83
2022-05-29 00:43:00,,0813.4,4.99,0.00,29.4,27.5,00.0,38.2,31.1,09.2,0000.0,0007.48,0002.10,0000.84
2022-05-29 00:44:00,,0813.3,5.00,0.00,29.4,27.5,00.0,38.2,31.1,08.7,0000.0,0007.03,0002.08,0000.85
2022-05-29 00:45:00,,0813.3,4.99,0.00,29.3,27.6,00.0,38.2,31.1,08.9,0000.0,0006.08,0002.00,0000.85
2022-05-29 00:46:00,,0813.4,5.00,0.00,29.3,27.7,00.0,38.2,31.2,09.2,0000.0,0006.27,0002.07,0000.85
2022-05-29 00:47:00,,0813.3,5.00,0.00,29.3,27.8,00.0,38.2,31.2,09.4,0000.0,0006.03,0001.98,0000.85
2022-05-29 00:48:00,,0813.4,5.00,0.00,29.4,28.0,00.0,38.2,31.2,09.4,0000.0,0005.33,0001.89,0000.86
2022-05-29 00:49:00,,0813.4,5.00,0.00,29.4,28.1,00.0,38.2,31.3,09.3,0000.0,0005.31,0001.95,0000.87
2022-05-29 00:50:00,,0813.5,5.00,0.00,29.4,28.2,00.0,38.2,31.3,09.1,0000.0,0005.18,0001.95,0000.87
2022-05-29 00:51:00,,0813.5,5.00,0.00,29.4,28.3,00.0,38.2,31.3,08.9,0000.0,0006.29,0002.02,0000.87
2022-05-29 00:52:00,,0813.5,5.01,0.00,29.4,28.4,00.0,38.3,31.4,09.6,0000.0,0007.08,0002.03,0000.87
2022-05-29 00:53:00,,0813.5,5.01,0.00,29.5,28.5,00.0,38.3,31.4,09.6,0000.0,0007.29,0002.07,0000.88
2022-05-29 00:54:00,,0813.6,5.00,0.00,29.5,28.6,00.0,38.3,31.5,09.8,0000.0,0006.81,0002.14,0000.90
2022-05-29 00:55:00,,0813.5,5.00,0.00,29.5,28.5,00.0,38.3,31.4,10.1,0000.0,0006.98,0002.27,0000.92
2022-05-29 00:56:00,,0813.5,5.02,0.00,29.5,27.7,00.0,38.3,31.2,10.2,0000.0,0007.21,0002.35,0000.95
2022-05-29 00:57:00,,0813.5,4.99,0.00,29.4,27.3,00.0,38.2,31.1,09.8,0000.0,0007.30,0002.32,0000.98
2022-05-29 00:58:00,,0813.6,5.00,0.00,29.4,27.3,00.0,38.2,31.1,10.0,0000.0,0007.36,0002.32,0000.98
2022-05-29 00:59:00,,0813.6,5.00,0.00,29.3,27.4,00.0,38.2,31.1,09.7,0000.0,0007.84,0002.36,0000.99
